| time (UTC) | temp C | wind direction | speed KPH | gust KPH | rain 1hr cm | rain 24hr cm | rain mn cm | humidity % | barometer mb |
| 20260508220545 | 20 | 81 | 0.0 | 3.2 | 0.00 | 0.00 | 0.00 | 40 | 1008.2 |
| 20260508220044 | 20 | 81 | 0.0 | 3.2 | 0.00 | 0.00 | 0.00 | 40 | 1008.2 |
| 20260508215543 | 20 | 335 | 0.0 | 4.8 | 0.00 | 0.00 | 0.00 | 38 | 1008.1 |
| 20260508215043 | 20 | 335 | 0.0 | 4.8 | 0.00 | 0.00 | 0.00 | 38 | 1008.1 |
| 20260508214557 | 20 | 242 | 0.0 | 4.8 | 0.00 | 0.00 | 0.00 | 37 | 1008.1 |
| 20260508214041 | 20 | 47 | 0.0 | 8.0 | 0.00 | 0.00 | 0.00 | 37 | 1008.2 |
| 20260508213541 | 20 | 5 | 0.0 | 8.0 | 0.00 | 0.00 | 0.00 | 38 | 1008.2 |
| 20260508213041 | 20 | 314 | 0.0 | 4.8 | 0.00 | 0.00 | 0.00 | 38 | 1008.3 |
| 20260508212541 | 20 | 318 | 0.0 | 4.8 | 0.00 | 0.00 | 0.00 | 36 | 1008.3 |
| 20260508212039 | 20 | 280 | 0.0 | 4.8 | 0.00 | 0.00 | 0.00 | 37 | 1008.4 |
| 20260508211541 | 20 | 283 | 0.0 | 4.8 | 0.00 | 0.00 | 0.00 | 36 | 1008.4 |
| 20260508211038 | 20 | 265 | 0.0 | 4.8 | 0.00 | 0.00 | 0.00 | 36 | 1008.5 |
| 20260508210539 | 20 | 83 | 0.0 | 3.2 | 0.00 | 0.00 | 0.00 | 37 | 1008.6 |
| 20260508210038 | 20 | 82 | 0.0 | 3.2 | 0.00 | 0.00 | 0.00 | 36 | 1008.8 |
| 20260508205537 | 20 | 82 | 0.0 | 8.0 | 0.00 | 0.00 | 0.00 | 37 | 1008.9 |
| 20260508205038 | 20 | 69 | 0.0 | 8.0 | 0.00 | 0.00 | 0.00 | 34 | 1008.9 |
| 20260508204538 | 20 | 319 | 0.0 | 1.6 | 0.00 | 0.00 | 0.00 | 35 | 1009.1 |
| 20260508204037 | 20 | 327 | 0.0 | 3.2 | 0.00 | 0.00 | 0.00 | 35 | 1009.2 |
| 20260508203536 | 20 | 327 | 0.0 | 6.4 | 0.00 | 0.00 | 0.00 | 35 | 1009.2 |
| 20260508203036 | 20 | 20 | 0.0 | 12.9 | 0.00 | 0.00 | 0.00 | 35 | 1009.1 |
| 20260508202535 | 20 | 332 | 1.6 | 8.0 | 0.00 | 0.00 | 0.00 | 34 | 1009.1 |
| 20260508202034 | 20 | 318 | 0.0 | 4.8 | 0.00 | 0.00 | 0.00 | 35 | 1009.3 |
| 20260508201535 | 21 | 297 | 1.6 | 6.4 | 0.00 | 0.00 | 0.00 | 34 | 1009.3 |
| 20260508201036 | 21 | 266 | 1.6 | 6.4 | 0.00 | 0.00 | 0.00 | 33 | 1009.3 |
| 20260508200534 | 21 | 198 | 0.0 | 4.8 | 0.00 | 0.00 | 0.00 | 34 | 1009.3 |
| 20260508200040 | 21 | 215 | 0.0 | 4.8 | 0.00 | 0.00 | 0.00 | 34 | 1009.4 |
| 20260508195534 | 21 | 336 | 1.6 | 6.4 | 0.00 | 0.00 | 0.00 | 32 | 1009.6 |
| 20260508195033 | 21 | 24 | 1.6 | 6.4 | 0.00 | 0.00 | 0.00 | 31 | 1009.4 |
| 20260508194533 | 22 | 273 | 0.0 | 6.4 | 0.00 | 0.00 | 0.00 | 32 | 1009.5 |
| 20260508194035 | 22 | 259 | 1.6 | 9.7 | 0.00 | 0.00 | 0.00 | 33 | 1009.6 |
| 20260508193532 | 22 | 249 | 0.0 | 9.7 | 0.00 | 0.00 | 0.00 | 32 | 1009.6 |
| 20260508193043 | 22 | 93 | 0.0 | 6.4 | 0.00 | 0.00 | 0.00 | 33 | 1009.6 |
| 20260508192531 | 22 | 96 | 0.0 | 6.4 | 0.00 | 0.00 | 0.00 | 31 | 1009.7 |
| 20260508192033 | 22 | 117 | 0.0 | 11.3 | 0.00 | 0.00 | 0.00 | 30 | 1009.7 |
| 20260508191536 | 23 | 144 | 1.6 | 11.3 | 0.00 | 0.00 | 0.00 | 31 | 1009.7 |
| 20260508191029 | 22 | 305 | 1.6 | 9.7 | 0.00 | 0.00 | 0.00 | 30 | 1009.8 |
| 20260508190529 | 22 | 275 | 1.6 | 9.7 | 0.00 | 0.00 | 0.00 | 31 | 1010.0 |
| 20260508190046 | 22 | 269 | 3.2 | 8.0 | 0.00 | 0.00 | 0.00 | 33 | 1010.1 |
| 20260508185529 | 22 | 349 | 1.6 | 8.0 | 0.00 | 0.00 | 0.00 | 34 | 1010.0 |
| 20260508185025 | 22 | 171 | 0.0 | 9.7 | 0.00 | 0.00 | 0.00 | 34 | 1010.1 |
| 20260508184532 | 22 | 142 | 1.6 | 9.7 | 0.00 | 0.00 | 0.00 | 33 | 1010.2 |
| 20260508184029 | 22 | 261 | 1.6 | 6.4 | 0.00 | 0.00 | 0.00 | 31 | 1010.3 |
| 20260508183523 | 22 | 229 | 1.6 | 8.0 | 0.00 | 0.00 | 0.00 | 33 | 1010.4 |
| 20260508183033 | 22 | 80 | 1.6 | 8.0 | 0.00 | 0.00 | 0.00 | 38 | 1010.5 |
| 20260508182521 | 22 | 308 | 0.0 | 8.0 | 0.00 | 0.00 | 0.00 | 30 | 1010.6 |
| 20260508182020 | 22 | 282 | 1.6 | 9.7 | 0.00 | 0.00 | 0.00 | 32 | 1010.6 |
| 20260508181521 | 22 | 276 | 1.6 | 14.5 | 0.00 | 0.00 | 0.00 | 33 | 1010.7 |
| 20260508181021 | 22 | 130 | 4.8 | 14.5 | 0.00 | 0.00 | 0.00 | 31 | 1010.8 |
| 20260508180518 | 22 | 228 | 3.2 | 12.9 | 0.00 | 0.00 | 0.00 | 30 | 1010.9 |
| 20260508180018 | 22 | 218 | 0.0 | 6.4 | 0.00 | 0.00 | 0.00 | 34 | 1010.9 |
| 20260508175517 | 21 | 319 | 3.2 | 12.9 | 0.00 | 0.00 | 0.00 | 36 | 1011.0 |
| 20260508175017 | 21 | 27 | 1.6 | 6.4 | 0.00 | 0.00 | 0.00 | 35 | 1011.0 |
| 20260508174516 | 21 | 250 | 3.2 | 11.3 | 0.00 | 0.00 | 0.00 | 34 | 1011.0 |
| 20260508174015 | 21 | 268 | 1.6 | 11.3 | 0.00 | 0.00 | 0.00 | 33 | 1011.2 |
| 20260508173514 | 21 | 344 | 3.2 | 8.0 | 0.00 | 0.00 | 0.00 | 37 | 1011.3 |
| 20260508173015 | 21 | 277 | 1.6 | 8.0 | 0.00 | 0.00 | 0.00 | 35 | 1011.7 |
| 20260508172515 | 21 | 281 | 0.0 | 9.7 | 0.00 | 0.00 | 0.00 | 36 | 1011.8 |
| 20260508172013 | 21 | 236 | 3.2 | 9.7 | 0.00 | 0.00 | 0.00 | 34 | 1011.8 |
| 20260508171517 | 22 | 95 | 0.0 | 9.7 | 0.00 | 0.00 | 0.00 | 35 | 1011.9 |
| 20260508171011 | 22 | 263 | 1.6 | 9.7 | 0.00 | 0.00 | 0.00 | 31 | 1012.1 |
| 20260508170511 | 22 | 19 | 1.6 | 6.4 | 0.00 | 0.00 | 0.00 | 34 | 1012.1 |
| 20260508170011 | 22 | 221 | 0.0 | 12.9 | 0.00 | 0.00 | 0.00 | 37 | 1012.1 |
| 20260508165509 | 22 | 294 | 1.6 | 12.9 | 0.00 | 0.00 | 0.00 | 35 | 1012.2 |
| 20260508165010 | 22 | 281 | 1.6 | 8.0 | 0.00 | 0.00 | 0.00 | 35 | 1012.3 |
| 20260508164518 | 22 | 308 | 3.2 | 11.3 | 0.00 | 0.00 | 0.00 | 35 | 1012.5 |
| 20260508164007 | 22 | 261 | 3.2 | 11.3 | 0.00 | 0.00 | 0.00 | 33 | 1012.5 |
| 20260508163504 | 22 | 270 | 1.6 | 6.4 | 0.00 | 0.00 | 0.00 | 36 | 1012.6 |
| 20260508163011 | 22 | 304 | 0.0 | 6.4 | 0.00 | 0.00 | 0.00 | 34 | 1012.7 |
| 20260508162502 | 21 | 233 | 1.6 | 4.8 | 0.00 | 0.00 | 0.00 | 38 | 1012.7 |
| 20260508162100 | 21 | 280 | 0.0 | 4.8 | 0.00 | 0.00 | 0.00 | 39 | 1012.7 |
| 20260508161607 | 21 | 236 | 0.0 | 6.4 | 0.00 | 0.00 | 0.00 | 36 | 1012.9 |
| 20260508161059 | 21 | 309 | 3.2 | 6.4 | 0.00 | 0.00 | 0.00 | 35 | 1013.0 |
| 20260508160556 | 21 | 32 | 1.6 | 8.0 | 0.00 | 0.00 | 0.00 | 37 | 1013.1 |
| 20260508160056 | 21 | 286 | 3.2 | 14.5 | 0.00 | 0.00 | 0.00 | 37 | 1013.0 |
| 20260508155555 | 21 | 277 | 3.2 | 14.5 | 0.00 | 0.00 | 0.00 | 37 | 1013.0 |
| 20260508155054 | 21 | 211 | 0.0 | 9.7 | 0.00 | 0.00 | 0.00 | 40 | 1013.1 |
| 20260508154553 | 20 | 242 | 0.0 | 8.0 | 0.00 | 0.00 | 0.00 | 37 | 1013.2 |
| 20260508154051 | 20 | 159 | 1.6 | 8.0 | 0.00 | 0.00 | 0.00 | 39 | 1013.2 |
| 20260508153552 | 20 | 269 | 1.6 | 6.4 | 0.00 | 0.00 | 0.00 | 38 | 1013.3 |
| 20260508153055 | 20 | 309 | 0.0 | 6.4 | 0.00 | 0.00 | 0.00 | 40 | 1013.4 |
| 20260508152549 | 20 | 290 | 0.0 | 8.0 | 0.00 | 0.00 | 0.00 | 40 | 1013.5 |
| 20260508152045 | 19 | 309 | 1.6 | 8.0 | 0.00 | 0.00 | 0.00 | 39 | 1013.5 |
| 20260508151545 | 19 | 292 | 1.6 | 6.4 | 0.00 | 0.00 | 0.00 | 40 | 1013.5 |
| 20260508151043 | 19 | 300 | 1.6 | 11.3 | 0.00 | 0.00 | 0.00 | 39 | 1013.6 |
| 20260508150541 | 18 | 55 | 1.6 | 11.3 | 0.00 | 0.00 | 0.00 | 40 | 1013.5 |
| 20260508150041 | 18 | 11 | 1.6 | 8.0 | 0.00 | 0.00 | 0.00 | 42 | 1013.6 |
| 20260508145539 | 18 | 186 | 1.6 | 11.3 | 0.00 | 0.00 | 0.00 | 43 | 1013.7 |
| 20260508145037 | 17 | 159 | 1.6 | 11.3 | 0.00 | 0.00 | 0.00 | 40 | 1013.7 |
| 20260508144541 | 17 | 323 | 1.6 | 9.7 | 0.00 | 0.00 | 0.00 | 42 | 1013.7 |
| 20260508144034 | 17 | 304 | 1.6 | 9.7 | 0.00 | 0.00 | 0.00 | 42 | 1013.6 |
| 20260508143534 | 17 | 41 | 0.0 | 6.4 | 0.00 | 0.00 | 0.00 | 44 | 1013.7 |
| 20260508143031 | 16 | 272 | 0.0 | 9.7 | 0.00 | 0.00 | 0.00 | 45 | 1013.9 |
| 20260508142529 | 16 | 267 | 1.6 | 9.7 | 0.00 | 0.00 | 0.00 | 45 | 1013.9 |
| 20260508142028 | 16 | 228 | 1.6 | 9.7 | 0.00 | 0.00 | 0.00 | 46 | 1013.9 |
| 20260508141526 | 15 | 275 | 1.6 | 9.7 | 0.00 | 0.00 | 0.00 | 48 | 1014.1 |
| 20260508141024 | 15 | 241 | 1.6 | 6.4 | 0.00 | 0.00 | 0.00 | 50 | 1014.2 |
| 20260508140523 | 15 | 228 | 0.0 | 8.0 | 0.00 | 0.00 | 0.00 | 50 | 1014.2 |
| 20260508140025 | 14 | 311 | 1.6 | 8.0 | 0.00 | 0.00 | 0.00 | 52 | 1014.3 |
| 20260508135521 | 13 | 251 | 0.0 | 4.8 | 0.00 | 0.00 | 0.00 | 53 | 1014.3 |
| 20260508135020 | 13 | 305 | 1.6 | 4.8 | 0.00 | 0.00 | 0.00 | 54 | 1014.3 |
| 20260508134517 | 12 | 319 | 1.6 | 4.8 | 0.00 | 0.00 | 0.00 | 56 | 1014.2 |
| 20260508134017 | 12 | 288 | 0.0 | 4.8 | 0.00 | 0.00 | 0.00 | 58 | 1014.3 |
| 20260508133517 | 11 | 324 | 0.0 | 4.8 | 0.00 | 0.00 | 0.00 | 59 | 1014.3 |
| 20260508133013 | 11 | 328 | 0.0 | 4.8 | 0.00 | 0.00 | 0.00 | 61 | 1014.4 |
| 20260508132514 | 11 | 311 | 0.0 | 3.2 | 0.00 | 0.00 | 0.00 | 62 | 1014.3 |
| 20260508132010 | 10 | 226 | 0.0 | 4.8 | 0.00 | 0.00 | 0.00 | 62 | 1014.3 |
| 20260508131509 | 10 | 223 | 1.6 | 4.8 | 0.00 | 0.00 | 0.00 | 62 | 1014.3 |
| 20260508131008 | 10 | 268 | 0.0 | 4.8 | 0.00 | 0.00 | 0.00 | 63 | 1014.3 |
| 20260508130507 | 9 | 233 | 0.0 | 3.2 | 0.00 | 0.00 | 0.00 | 63 | 1014.2 |
| 20260508130007 | 9 | 233 | 0.0 | 3.2 | 0.00 | 0.00 | 0.00 | 64 | 1014.2 |
| 20260508125508 | 8 | 232 | 0.0 | 3.2 | 0.00 | 0.00 | 0.00 | 64 | 1014.1 |
| 20260508125004 | 8 | 234 | 0.0 | 3.2 | 0.00 | 0.00 | 0.00 | 64 | 1014.1 |
| 20260508124502 | 8 | 128 | 0.0 | 3.2 | 0.00 | 0.00 | 0.00 | 65 | 1014.1 |
| 20260508124003 | 8 | 129 | 0.0 | 1.6 | 0.00 | 0.00 | 0.00 | 65 | 1014.2 |
| 20260508123601 | 8 | 129 | 0.0 | 1.6 | 0.00 | 0.00 | 0.00 | 66 | 1014.1 |
| 20260508123116 | 7 | 129 | 0.0 | 1.6 | 0.00 | 0.00 | 0.00 | 66 | 1014.0 |
| 20260508122558 | 7 | 129 | 0.0 | 6.4 | 0.00 | 0.00 | 0.00 | 66 | 1014.1 |
| 20260508122057 | 7 | 129 | 0.0 | 6.4 | 0.00 | 0.00 | 0.00 | 67 | 1014.2 |
| 20260508121608 | 7 | 275 | 0.0 | 0.0 | 0.00 | 0.00 | 0.00 | 68 | 1014.2 |
| 20260508121055 | 7 | 275 | 0.0 | 0.0 | 0.00 | 0.00 | 0.00 | 68 | 1014.3 |
| 20260508120553 | 7 | 275 | 0.0 | 0.0 | 0.00 | 0.00 | 0.00 | 68 | 1014.3 |
| 20260508120108 | 7 | 275 | 0.0 | 1.6 | 0.00 | 0.00 | 0.00 | 69 | 1014.3 |
| 20260508115553 | 7 | 275 | 0.0 | 1.6 | 0.00 | 0.00 | 0.00 | 69 | 1014.2 |
| 20260508115052 | 7 | 275 | 0.0 | 0.0 | 0.00 | 0.00 | 0.00 | 69 | 1014.3 |
| 20260508114559 | 7 | 275 | 0.0 | 0.0 | 0.00 | 0.00 | 0.00 | 70 | 1014.1 |
| 20260508114053 | 7 | 275 | 0.0 | 0.0 | 0.00 | 0.00 | 0.00 | 70 | 1014.1 |
| 20260508113553 | 7 | 275 | 0.0 | 0.0 | 0.00 | 0.00 | 0.00 | 70 | 1013.9 |
| 20260508113105 | 7 | 275 | 0.0 | 3.2 | 0.00 | 0.00 | 0.00 | 70 | 1013.9 |
| 20260508112549 | 6 | 275 | 0.0 | 3.2 | 0.00 | 0.00 | 0.00 | 71 | 1013.8 |
| 20260508112049 | 6 | 275 | 0.0 | 1.6 | 0.00 | 0.00 | 0.00 | 71 | 1013.7 |
| 20260508111551 | 6 | 275 | 0.0 | 0.0 | 0.00 | 0.00 | 0.00 | 72 | 1013.8 |
| 20260508111049 | 6 | 275 | 0.0 | 0.0 | 0.00 | 0.00 | 0.00 | 72 | 1013.7 |
| 20260508110548 | 6 | 275 | 0.0 | 0.0 | 0.00 | 0.00 | 0.00 | 72 | 1013.7 |
| 20260508110051 | 6 | 275 | 0.0 | 0.0 | 0.00 | 0.00 | 0.00 | 72 | 1013.7 |
| 20260508105549 | 6 | 275 | 0.0 | 0.0 | 0.00 | 0.00 | 0.00 | 72 | 1013.7 |
| 20260508105046 | 6 | 275 | 0.0 | 0.0 | 0.00 | 0.00 | 0.00 | 72 | 1013.7 |
| 20260508104645 | 6 | 275 | 0.0 | 0.0 | 0.00 | 0.00 | 0.00 | 72 | 1013.6 |
| 20260508104045 | 6 | 275 | 0.0 | 0.0 | 0.00 | 0.00 | 0.00 | 72 | 1013.7 |
| 20260508103546 | 6 | 275 | 0.0 | 0.0 | 0.00 | 0.00 | 0.00 | 72 | 1013.6 |
| 20260508103057 | 6 | 275 | 0.0 | 0.0 | 0.00 | 0.00 | 0.00 | 72 | 1013.5 |
| 20260508102544 | 6 | 275 | 0.0 | 0.0 | 0.00 | 0.00 | 0.00 | 72 | 1013.6 |
| 20260508102044 | 6 | 275 | 0.0 | 0.0 | 0.00 | 0.00 | 0.00 | 72 | 1013.6 |
| 20260508101552 | 6 | 275 | 0.0 | 0.0 | 0.00 | 0.00 | 0.00 | 72 | 1013.6 |
| 20260508101044 | 6 | 275 | 0.0 | 0.0 | 0.00 | 0.00 | 0.00 | 72 | 1013.6 |
| 20260508100543 | 6 | 276 | 0.0 | 0.0 | 0.00 | 0.00 | 0.00 | 72 | 1013.6 |
| 20260508100043 | 6 | 275 | 0.0 | 0.0 | 0.00 | 0.00 | 0.00 | 72 | 1013.6 |
| 20260508095543 | 6 | 275 | 0.0 | 0.0 | 0.00 | 0.00 | 0.00 | 72 | 1013.6 |
| 20260508095043 | 6 | 275 | 0.0 | 0.0 | 0.00 | 0.00 | 0.00 | 72 | 1013.6 |
| 20260508094543 | 6 | 275 | 0.0 | 0.0 | 0.00 | 0.00 | 0.00 | 71 | 1013.6 |
| 20260508094042 | 5 | 275 | 0.0 | 0.0 | 0.00 | 0.00 | 0.00 | 71 | 1013.6 |
| 20260508093546 | 5 | 275 | 0.0 | 0.0 | 0.00 | 0.00 | 0.00 | 71 | 1013.5 |
| 20260508093042 | 5 | 275 | 0.0 | 0.0 | 0.00 | 0.00 | 0.00 | 71 | 1013.5 |
| 20260508092542 | 5 | 275 | 0.0 | 0.0 | 0.00 | 0.00 | 0.00 | 71 | 1013.5 |
| 20260508092040 | 5 | 275 | 0.0 | 0.0 | 0.00 | 0.00 | 0.00 | 70 | 1013.5 |
| 20260508091541 | 5 | 275 | 0.0 | 0.0 | 0.00 | 0.00 | 0.00 | 70 | 1013.6 |
| 20260508091041 | 5 | 275 | 0.0 | 0.0 | 0.00 | 0.00 | 0.00 | 70 | 1013.6 |
| 20260508090540 | 5 | 275 | 0.0 | 0.0 | 0.00 | 0.00 | 0.00 | 70 | 1013.6 |
| 20260508090040 | 5 | 275 | 0.0 | 0.0 | 0.00 | 0.00 | 0.00 | 70 | 1013.6 |
| 20260508085539 | 5 | 276 | 0.0 | 0.0 | 0.00 | 0.00 | 0.00 | 69 | 1013.6 |
| 20260508085039 | 5 | 275 | 0.0 | 0.0 | 0.00 | 0.00 | 0.00 | 69 | 1013.5 |
| 20260508084539 | 5 | 275 | 0.0 | 0.0 | 0.00 | 0.00 | 0.00 | 69 | 1013.5 |
| 20260508084039 | 5 | 275 | 0.0 | 0.0 | 0.00 | 0.00 | 0.00 | 69 | 1013.5 |
| 20260508083539 | 5 | 275 | 0.0 | 0.0 | 0.00 | 0.00 | 0.00 | 69 | 1013.5 |
| 20260508083042 | 5 | 275 | 0.0 | 0.0 | 0.00 | 0.00 | 0.00 | 69 | 1013.5 |
| 20260508082538 | 5 | 275 | 0.0 | 0.0 | 0.00 | 0.00 | 0.00 | 69 | 1013.5 |
| 20260508082039 | 5 | 275 | 0.0 | 0.0 | 0.00 | 0.00 | 0.00 | 69 | 1013.5 |
| 20260508081538 | 5 | 275 | 0.0 | 0.0 | 0.00 | 0.00 | 0.00 | 69 | 1013.3 |
| 20260508081037 | 5 | 276 | 0.0 | 0.0 | 0.00 | 0.00 | 0.00 | 69 | 1013.3 |
| 20260508080537 | 5 | 275 | 0.0 | 0.0 | 0.00 | 0.00 | 0.00 | 69 | 1013.4 |
| 20260508080037 | 5 | 275 | 0.0 | 0.0 | 0.00 | 0.00 | 0.00 | 69 | 1013.5 |
| 20260508075538 | 5 | 276 | 0.0 | 0.0 | 0.00 | 0.00 | 0.00 | 69 | 1013.4 |
| 20260508075038 | 5 | 275 | 0.0 | 0.0 | 0.00 | 0.00 | 0.00 | 69 | 1013.4 |
| 20260508074536 | 5 | 275 | 0.0 | 0.0 | 0.00 | 0.00 | 0.00 | 69 | 1013.4 |
| 20260508074038 | 5 | 275 | 0.0 | 0.0 | 0.00 | 0.00 | 0.00 | 69 | 1013.3 |
| 20260508073534 | 5 | 275 | 0.0 | 0.0 | 0.00 | 0.00 | 0.00 | 69 | 1013.3 |
| 20260508073040 | 5 | 275 | 0.0 | 0.0 | 0.00 | 0.00 | 0.00 | 69 | 1013.4 |
| 20260508072535 | 5 | 275 | 0.0 | 0.0 | 0.00 | 0.00 | 0.00 | 69 | 1013.3 |
| 20260508072034 | 5 | 275 | 0.0 | 0.0 | 0.00 | 0.00 | 0.00 | 69 | 1013.4 |
| 20260508071535 | 5 | 275 | 0.0 | 0.0 | 0.00 | 0.00 | 0.00 | 69 | 1013.4 |
| 20260508071133 | 5 | 275 | 0.0 | 0.0 | 0.00 | 0.00 | 0.00 | 69 | 1013.4 |
| 20260508070533 | 5 | 275 | 0.0 | 0.0 | 0.00 | 0.00 | 0.00 | 69 | 1013.3 |
| 20260508070033 | 5 | 275 | 0.0 | 0.0 | 0.00 | 0.00 | 0.00 | 69 | 1013.5 |
| 20260508065532 | 5 | 275 | 0.0 | 0.0 | 0.00 | 0.00 | 0.00 | 69 | 1013.5 |
| 20260508065035 | 5 | 275 | 0.0 | 0.0 | 0.00 | 0.00 | 0.00 | 69 | 1013.6 |
| 20260508064538 | 6 | 275 | 0.0 | 0.0 | 0.00 | 0.00 | 0.00 | 68 | 1013.8 |
| 20260508064031 | 6 | 275 | 0.0 | 0.0 | 0.00 | 0.00 | 0.00 | 68 | 1014.0 |
| 20260508063531 | 6 | 275 | 0.0 | 0.0 | 0.00 | 0.00 | 0.00 | 68 | 1014.0 |
| 20260508063039 | 6 | 275 | 0.0 | 0.0 | 0.00 | 0.00 | 0.00 | 67 | 1013.9 |
| 20260508062530 | 6 | 275 | 0.0 | 0.0 | 0.00 | 0.00 | 0.00 | 67 | 1014.0 |
| 20260508062028 | 6 | 275 | 0.0 | 0.0 | 0.00 | 0.00 | 0.00 | 67 | 1014.1 |
| 20260508061530 | 6 | 275 | 0.0 | 0.0 | 0.00 | 0.00 | 0.00 | 67 | 1014.1 |
| 20260508061027 | 6 | 275 | 0.0 | 0.0 | 0.00 | 0.00 | 0.00 | 67 | 1014.1 |
| 20260508060527 | 6 | 275 | 0.0 | 0.0 | 0.00 | 0.00 | 0.00 | 67 | 1014.2 |
| 20260508060027 | 6 | 275 | 0.0 | 0.0 | 0.00 | 0.00 | 0.00 | 67 | 1014.2 |
| 20260508055526 | 6 | 275 | 0.0 | 0.0 | 0.00 | 0.00 | 0.00 | 67 | 1014.2 |
| 20260508055026 | 6 | 275 | 0.0 | 0.0 | 0.00 | 0.00 | 0.00 | 67 | 1014.2 |
| 20260508054525 | 6 | 275 | 0.0 | 0.0 | 0.00 | 0.00 | 0.00 | 66 | 1014.2 |
| 20260508054025 | 6 | 275 | 0.0 | 0.0 | 0.00 | 0.00 | 0.00 | 66 | 1014.3 |
| 20260508053524 | 6 | 275 | 0.0 | 0.0 | 0.00 | 0.00 | 0.00 | 66 | 1014.2 |
| 20260508053024 | 6 | 275 | 0.0 | 0.0 | 0.00 | 0.00 | 0.00 | 66 | 1014.1 |
| 20260508052525 | 6 | 275 | 0.0 | 0.0 | 0.00 | 0.00 | 0.00 | 66 | 1014.1 |
| 20260508052021 | 6 | 275 | 0.0 | 0.0 | 0.00 | 0.00 | 0.00 | 66 | 1014.1 |
| 20260508051622 | 6 | 275 | 0.0 | 0.0 | 0.00 | 0.00 | 0.00 | 66 | 1014.0 |
| 20260508051020 | 6 | 275 | 0.0 | 0.0 | 0.00 | 0.00 | 0.00 | 66 | 1014.0 |
| 20260508050520 | 6 | 275 | 0.0 | 0.0 | 0.00 | 0.00 | 0.00 | 66 | 1014.0 |
| 20260508050030 | 6 | 275 | 0.0 | 0.0 | 0.00 | 0.00 | 0.00 | 66 | 1013.9 |
| 20260508045519 | 6 | 275 | 0.0 | 0.0 | 0.00 | 0.00 | 0.00 | 66 | 1013.9 |
| 20260508045019 | 7 | 275 | 0.0 | 0.0 | 0.00 | 0.00 | 0.00 | 66 | 1014.0 |
| 20260508044518 | 7 | 275 | 0.0 | 0.0 | 0.00 | 0.00 | 0.00 | 66 | 1014.0 |
| 20260508044018 | 7 | 275 | 0.0 | 0.0 | 0.00 | 0.00 | 0.00 | 65 | 1014.1 |
| 20260508043516 | 7 | 275 | 0.0 | 0.0 | 0.00 | 0.00 | 0.00 | 64 | 1013.9 |
| 20260508043016 | 7 | 275 | 0.0 | 0.0 | 0.00 | 0.00 | 0.00 | 64 | 1014.0 |
| 20260508042516 | 7 | 275 | 0.0 | 0.0 | 0.00 | 0.00 | 0.00 | 64 | 1014.0 |
| 20260508042020 | 7 | 275 | 0.0 | 0.0 | 0.00 | 0.00 | 0.00 | 63 | 1014.0 |
| 20260508041514 | 7 | 275 | 0.0 | 0.0 | 0.00 | 0.00 | 0.00 | 63 | 1013.9 |
| 20260508041014 | 7 | 275 | 0.0 | 0.0 | 0.00 | 0.00 | 0.00 | 63 | 1013.8 |
| 20260508040517 | 7 | 275 | 0.0 | 0.0 | 0.00 | 0.00 | 0.00 | 63 | 1013.7 |
| 20260508040013 | 7 | 275 | 0.0 | 0.0 | 0.00 | 0.00 | 0.00 | 63 | 1013.9 |
| 20260508035512 | 7 | 275 | 0.0 | 0.0 | 0.00 | 0.00 | 0.00 | 63 | 1013.7 |
| 20260508035012 | 7 | 275 | 0.0 | 0.0 | 0.00 | 0.00 | 0.00 | 62 | 1013.7 |
| 20260508034514 | 7 | 275 | 0.0 | 0.0 | 0.00 | 0.00 | 0.00 | 62 | 1013.9 |
| 20260508034012 | 7 | 275 | 0.0 | 0.0 | 0.00 | 0.00 | 0.00 | 61 | 1013.9 |
| 20260508033511 | 7 | 275 | 0.0 | 0.0 | 0.00 | 0.00 | 0.00 | 61 | 1014.0 |
| 20260508033012 | 7 | 275 | 0.0 | 0.0 | 0.00 | 0.00 | 0.00 | 61 | 1013.9 |
| 20260508032511 | 7 | 275 | 0.0 | 0.0 | 0.00 | 0.00 | 0.00 | 61 | 1013.9 |
| 20260508032010 | 7 | 275 | 0.0 | 0.0 | 0.00 | 0.00 | 0.00 | 60 | 1013.9 |
| 20260508031510 | 7 | 275 | 0.0 | 0.0 | 0.00 | 0.00 | 0.00 | 60 | 1013.9 |
| 20260508031010 | 7 | 275 | 0.0 | 0.0 | 0.00 | 0.00 | 0.00 | 60 | 1013.9 |
| 20260508030510 | 7 | 275 | 0.0 | 0.0 | 0.00 | 0.00 | 0.00 | 60 | 1013.9 |
| 20260508030010 | 8 | 275 | 0.0 | 0.0 | 0.00 | 0.00 | 0.00 | 60 | 1013.9 |
| 20260508025510 | 8 | 275 | 0.0 | 0.0 | 0.00 | 0.00 | 0.00 | 59 | 1014.0 |
| 20260508025010 | 8 | 275 | 0.0 | 0.0 | 0.00 | 0.00 | 0.00 | 59 | 1013.9 |
| 20260508024510 | 8 | 275 | 0.0 | 0.0 | 0.00 | 0.00 | 0.00 | 59 | 1013.9 |
| 20260508024010 | 8 | 278 | 0.0 | 0.0 | 0.00 | 0.00 | 0.00 | 59 | 1013.8 |
| 20260508023510 | 8 | 278 | 0.0 | 0.0 | 0.00 | 0.00 | 0.00 | 58 | 1013.7 |
| 20260508023009 | 8 | 278 | 0.0 | 0.0 | 0.00 | 0.00 | 0.00 | 58 | 1013.6 |
| 20260508022511 | 8 | 278 | 0.0 | 0.0 | 0.00 | 0.00 | 0.00 | 58 | 1013.7 |
| 20260508022009 | 8 | 278 | 0.0 | 0.0 | 0.00 | 0.00 | 0.00 | 57 | 1013.8 |
| 20260508021508 | 8 | 278 | 0.0 | 0.0 | 0.00 | 0.00 | 0.00 | 57 | 1013.6 |
| 20260508021011 | 9 | 278 | 0.0 | 0.0 | 0.00 | 0.00 | 0.00 | 57 | 1013.7 |
| 20260508020508 | 9 | 278 | 0.0 | 0.0 | 0.00 | 0.00 | 0.00 | 56 | 1013.8 |
| 20260508020008 | 9 | 278 | 0.0 | 0.0 | 0.00 | 0.03 | 0.00 | 56 | 1013.7 |
| 20260508015511 | 9 | 278 | 0.0 | 0.0 | 0.00 | 0.03 | 0.00 | 56 | 1013.7 |
| 20260508015008 | 10 | 278 | 0.0 | 0.0 | 0.00 | 0.03 | 0.00 | 55 | 1013.7 |
| 20260508014511 | 10 | 278 | 0.0 | 0.0 | 0.00 | 0.03 | 0.00 | 55 | 1013.7 |
| 20260508014008 | 10 | 278 | 0.0 | 0.0 | 0.00 | 0.03 | 0.00 | 54 | 1013.7 |
| 20260508013507 | 10 | 278 | 0.0 | 0.0 | 0.00 | 0.03 | 0.00 | 54 | 1013.7 |
| 20260508013007 | 10 | 278 | 0.0 | 0.0 | 0.00 | 0.03 | 0.00 | 52 | 1013.7 |
| 20260508012510 | 10 | 278 | 0.0 | 0.0 | 0.00 | 0.03 | 0.00 | 52 | 1013.7 |
| 20260508012007 | 11 | 278 | 0.0 | 0.0 | 0.00 | 0.03 | 0.00 | 52 | 1013.6 |
| 20260508011507 | 11 | 278 | 0.0 | 0.0 | 0.00 | 0.03 | 0.00 | 52 | 1013.6 |
| 20260508011006 | 11 | 278 | 0.0 | 0.0 | 0.00 | 0.03 | 0.00 | 51 | 1013.6 |
| 20260508010506 | 11 | 278 | 0.0 | 0.0 | 0.00 | 0.03 | 0.00 | 50 | 1013.5 |
| 20260508010009 | 11 | 278 | 0.0 | 0.0 | 0.00 | 0.03 | 0.00 | 50 | 1013.5 |
| 20260508005510 | 12 | 278 | 0.0 | 0.0 | 0.00 | 0.03 | 0.00 | 49 | 1013.5 |
| 20260508005007 | 12 | 278 | 0.0 | 0.0 | 0.00 | 0.03 | 0.00 | 48 | 1013.4 |
| 20260508004509 | 12 | 278 | 0.0 | 0.0 | 0.00 | 0.03 | 0.00 | 48 | 1013.5 |
| 20260508004006 | 12 | 278 | 0.0 | 0.0 | 0.00 | 0.03 | 0.00 | 46 | 1013.4 |
| 20260508003505 | 12 | 278 | 0.0 | 0.0 | 0.00 | 0.03 | 0.00 | 44 | 1013.4 |
| 20260508003006 | 13 | 278 | 0.0 | 0.0 | 0.00 | 0.03 | 0.00 | 43 | 1013.3 |
| 20260508002505 | 13 | 278 | 0.0 | 0.0 | 0.00 | 0.03 | 0.00 | 42 | 1013.3 |
| 20260508002005 | 13 | 278 | 0.0 | 1.6 | 0.00 | 0.03 | 0.00 | 41 | 1013.3 |
| 20260508001512 | 13 | 278 | 0.0 | 1.6 | 0.00 | 0.03 | 0.00 | 39 | 1013.2 |
| 20260508001005 | 13 | 320 | 0.0 | 0.0 | 0.00 | 0.03 | 0.00 | 38 | 1013.3 |
| 20260508000508 | 13 | 320 | 0.0 | 0.0 | 0.00 | 0.03 | 0.00 | 37 | 1013.3 |
| 20260508000005 | 13 | 320 | 0.0 | 0.0 | 0.00 | 0.03 | 0.00 | 37 | 1013.2 |
| 20260507235505 | 13 | 320 | 0.0 | 0.0 | 0.00 | 0.03 | 0.00 | 37 | 1013.2 |
| 20260507235006 | 13 | 320 | 0.0 | 0.0 | 0.00 | 0.03 | 0.00 | 37 | 1013.2 |
| 20260507234505 | 13 | 320 | 0.0 | 0.0 | 0.00 | 0.03 | 0.00 | 37 | 1013.1 |
| 20260507234051 | 13 | 320 | 0.0 | 1.6 | 0.00 | 0.03 | 0.00 | 37 | 1013.1 |
| 20260507233504 | 13 | 320 | 0.0 | 3.2 | 0.00 | 0.03 | 0.00 | 37 | 1013.0 |
| 20260507233008 | 14 | 320 | 0.0 | 3.2 | 0.00 | 0.03 | 0.00 | 37 | 1013.0 |
| 20260507232504 | 14 | 318 | 0.0 | 3.2 | 0.00 | 0.03 | 0.00 | 35 | 1012.9 |
| 20260507232002 | 14 | 321 | 0.0 | 0.0 | 0.00 | 0.03 | 0.00 | 35 | 1012.8 |
| 20260507231502 | 14 | 321 | 0.0 | 0.0 | 0.00 | 0.03 | 0.00 | 36 | 1012.8 |
| 20260507231001 | 14 | 321 | 0.0 | 0.0 | 0.00 | 0.03 | 0.00 | 35 | 1012.9 |
| 20260507230503 | 14 | 320 | 0.0 | 0.0 | 0.00 | 0.03 | 0.00 | 36 | 1012.9 |
| 20260507230005 | 14 | 319 | 0.0 | 0.0 | 0.00 | 0.05 | 0.00 | 37 | 1012.9 |
| 20260507225501 | 15 | 320 | 0.0 | 0.0 | 0.00 | 0.05 | 0.00 | 35 | 1012.9 |
| 20260507225001 | 15 | 320 | 0.0 | 1.6 | 0.00 | 0.05 | 0.00 | 38 | 1013.0 |
| 20260507224503 | 15 | 319 | 0.0 | 3.2 | 0.00 | 0.05 | 0.00 | 37 | 1013.0 |
| 20260507224005 | 15 | 320 | 0.0 | 3.2 | 0.00 | 0.05 | 0.00 | 39 | 1012.9 |
| 20260507223501 | 15 | 325 | 0.0 | 3.2 | 0.00 | 0.05 | 0.00 | 36 | 1013.0 |
| 20260507223001 | 15 | 312 | 0.0 | 3.2 | 0.00 | 0.05 | 0.00 | 37 | 1013.0 |
| 20260507222601 | 15 | 311 | 0.0 | 3.2 | 0.00 | 0.05 | 0.00 | 40 | 1013.0 |
| 20260507222100 | 15 | 311 | 0.0 | 3.2 | 0.00 | 0.05 | 0.00 | 38 | 1012.9 |
| 20260507221559 | 15 | 311 | 1.6 | 3.2 | 0.00 | 0.05 | 0.00 | 40 | 1013.0 |
| 20260507221059 | 15 | 311 | 0.0 | 4.8 | 0.00 | 0.05 | 0.00 | 36 | 1013.0 |